Find Starlink 5010

NORAD ID: 53930 Int'l Des: 2022-119 Owner: SPXS Country: US Constellation: starlink operational
LEOCIRCULAR

現在のビュー

3D地球を読み込み中...

Starlink 5010について

説明を読み込み中...

次回通過

Passes for default location (London). Set your location on the main map for personalized predictions.

高度履歴

Loading altitude history...

軌道要素

1 53930U 22119AW 26150.16668980 .00522533 00000-0 47834-2 0 9991
2 53930 53.2176 282.2203 0000801 34.4030 355.7542 15.65616620 5989
Epoch: May 30, 2026 • Age: 7 hours

現在のステータス

高度 372.8 km
速度 7.69 km/s
衛星直下点 31.90°N, 26.49°E
打ち上げ日 Sep 24, 2022
運用期間 3.6 years
タイプ internet

技術仕様

分類 Payload
質量 305.00 kg
乾燥質量 290.00 kg
総質量 305.00 kg
長さ 0.20 m
直径 2.80 m
スパン 9.00 m
形状 Box + pan
製造者 SPXS
バスタイプ Starlink
フェーズステータス In Orbit
所有者/国 SPXS/US

Most Searched